Voltar ao catálogo

STARLINK-31031

AtivoComunicaçõesVLEO
NORAD 58711·PAYLOAD·🇺🇸 United States

Lançado Jan 3, 2024 de Vandenberg Space Force Base

Loading…

Próximas Passagens (próximas 24 horas)

TLE

AtualizadoSource: CelesTrak SupGP

Época: Sep 15, 2026, 02:03 UTC

1 58711C 24002G   26258.08590278 -.00025064  00000+0 -74057-3 0  2584
2 58711  53.1574  66.6885 0001092  89.6008 229.7287 15.34401789    11

Acompanhe STARLINK-31031 em tempo real com AllMySat

Download on the App Store